This demonstration page uses our WeatherBlox Daily Observations layout. Learn more.

Left ArrowRight Arrow

Hourly Observations for January 5, 2019

Temp ( °F °C ) Dew Point ( °F °C ) Humidity (%) Winds ( mph kmh ) Pressure ( in mb ) Visibility ( mi km ) Precip ( " mm )
12:59 am 00:59 Cloudy 63 17.2 60 15.6 90 90 SSE 8 13 29.59 1002 10 16 0.00 0.00
1:30 am 01:30 Cloudy 62 16.7 60 15.6 93 93 S 6 9 29.59 1002 10 16 0.01 0.25
1:42 am 01:42 Cloudy with Light Rain 62 16.7 60 15.6 93 93 S 7 11 29.59 1002 4 6 0.04 1.02
1:59 am 01:59 Cloudy 62 16.7 60 15.6 93 93 S 8 13 29.58 1002 10 16 0.04 1.02
2:13 am 02:13 Cloudy 62 16.7 60 15.6 93 93 S 8 13 29.56 1001 10 16 0.00 0.00
2:59 am 02:59 Mostly Cloudy 62 16.7 59 15 90 90 SSW 10 17 29.55 1001 10 16 0.00 0.00
3:20 am 03:20 Mostly Clear 61 16.1 59 15 93 93 SSW 7 11 29.53 1000 10 16 0.00 0.00
3:43 am 03:43 Mostly Cloudy 62 16.7 59 15 90 90 SW 10 17 29.53 1000 10 16 0.00 0.00
3:55 am 03:55 Mostly Cloudy 61 16 59 15 94 94 SW 10 17 29.53 1000 10 16 0.00 0.00
3:59 am 03:59 Mostly Cloudy 61 16.1 58 14.4 90 90 SW 12 19 29.53 1000 10 16 0.00 0.00
4:19 am 04:19 Partly Cloudy 60 15.6 57 13.9 90 90 SW 9 15 29.53 1000 10 16 0.00 0.00
4:59 am 04:59 Clear 59 15 55 12.8 87 87 SW 9 15 29.51 999 10 16 0.00 0.00
5:59 am 05:59 Mostly Clear 58 14.4 54 12.2 87 87 SW 8 13 29.49 999 10 16 0.00 0.00
6:59 am 06:59 Partly Cloudy 56 13.3 52 11.1 87 87 SW 7 11 29.49 999 10 16 0.00 0.00
7:59 am 07:59 Mostly Cloudy 54 12.2 44 6.7 69 69 WSW 18 30 29.54 1000 10 16 0.00 0.00
8:59 am 08:59 Mostly Cloudy 53 11.7 44 6.7 72 72 WSW 15 24 29.57 1001 10 16 0.00 0.00
9:59 am 09:59 Mostly Cloudy 54 12.2 44 6.7 69 69 WSW 17 28 29.58 1002 10 16 0.00 0.00
10:52 am 10:52 Mostly Cloudy 56 13.3 45 7.2 67 67 W 14 22 29.59 1002 10 16 0.00 0.00
10:59 am 10:59 Mostly Cloudy 56 13.3 45 7.2 67 67 W 16 26 29.58 1002 10 16 0.00 0.00
11:29 am 11:29 Mostly Cloudy 56 13.3 45 7.2 67 67 W 20 31 29.59 1002 10 16 0.00 0.00
11:59 am 11:59 Mostly Cloudy 57 13.9 44 6.7 62 62 W 13 20 29.58 1002 10 16 0.00 0.00
12:59 pm 12:59 Mostly Cloudy 58 14.4 44 6.7 60 60 W 23 37 29.58 1002 10 16 0.00 0.00
1:59 pm 13:59 Mostly Cloudy 58 14.4 44 6.7 60 60 W 15 24 29.61 1003 10 16 0.00 0.00
2:59 pm 14:59 Mostly Cloudy 58 14.4 44 6.7 60 60 W 15 24 29.64 1004 10 16 0.00 0.00
3:59 pm 15:59 Mostly Cloudy 57 13.9 42 5.6 58 58 WNW 21 33 29.69 1006 10 16 0.00 0.00
4:59 pm 16:59 Partly Cloudy 56 13.3 41 5 57 57 WNW 15 24 29.73 1007 10 16 0.00 0.00
5:59 pm 17:59 Mostly Clear 54 12.2 41 5 62 62 WNW 13 20 29.77 1008 10 16 0.00 0.00
6:59 pm 18:59 Clear 53 11.7 41 5 64 64 W 9 15 29.80 1009 10 16 0.00 0.00
7:59 pm 19:59 Clear 52 11.1 41 5 66 66 W 9 15 29.82 1010 10 16 0.00 0.00
8:59 pm 20:59 Clear 52 11.1 40 4.4 64 64 W 9 15 29.85 1011 10 16 0.00 0.00
9:59 pm 21:59 Clear 51 10.6 40 4.4 66 66 W 10 17 29.88 1012 10 16 0.00 0.00
10:59 pm 22:59 Clear 50 10 39 3.9 66 66 W 7 11 29.89 1012 10 16 0.00 0.00
11:59 pm 23:59 Clear 49 9.4 39 3.9 69 69 WSW 6 9 29.91 1013 10 16 0.00 0.00

Powered by AerisWeather